Regional Weather Roundup
Issued by NWS Spokane, WA

Home | Current Version | Previous Version | Text Only | Print | Product List | Glossary On
Versions: 1 2 3 4 5 6 7 8 9 10 11 12 13 14 15 16 17 18 19 20 21 22 23 24 25 26 27 28 29 30 31 32 33 34 35 36 37 38 39 40 41 42 43 44 45 46 47 48 49 50
000
NZUS01 KOTX 121305
RWROTX
EASTERN WASHINGTON/NORTHERN IDAHO ROUNDUP
NATIONAL WEATHER SERVICE, SPOKANE WA
500 AM PST FRI FEB 12 2016

Note: "fair" indicated few or no clouds below 12,000 feet with no
significant weather and/or obstructions to visibility.

...NORTHEAST WASHINGTON AND NORTHERN IDAHO PANHANDLE...

CITY           SKY/WX    TMP DP  RH WIND       PRES   REMARKS
SPOKANE INTL   CLOUDY    38  37  97 E7        30.19S
SPOKANE DOWNTO CLOUDY    41  38  89 CALM      30.21S
COEUR D ALENE  CLOUDY    39  36  87 NE8       30.19R
DEER PARK      CLOUDY    38  36  92 NE5       30.20F
SANDPOINT      CLOUDY    34  34 100 CALM      30.23R FOG
BONNERS FERRY  MIX PCPN  32  32 100 CALM      30.23F

...SOUTHEAST WASHINGTON AND SOUTHERN IDAHO PANHANDLE...

CITY           SKY/WX    TMP DP  RH WIND       PRES   REMARKS
WALLA WALLA    CLOUDY    41  40  96 S5        30.21F FOG
PULLMAN/MOSCOW CLOUDY    44  38  79 E8        30.20R
LEWISTON       CLOUDY    44  37  76 E3        30.19F
LOWELL           N/A     40  38  93 CALM      30.27S

...COLUMBIA BASIN...

CITY           SKY/WX    TMP DP  RH WIND       PRES   REMARKS
EPHRATA        CLOUDY    41  38  89 NW3       30.19R
MOSES LAKE     CLOUDY    38  37  97 CALM      30.21R
TRI CITIES     CLOUDY    40  38  93 SE3       30.25S
HERMISTON      CLOUDY    42  40  92 CALM      30.22S
PENDLETON      FOG       40  39  97 SE6       30.20F VSB 3/4

...EAST SLOPES CASCADES...

CITY           SKY/WX    TMP DP  RH WIND       PRES   REMARKS
THE DALLES     CLOUDY    44  42  93 S3        30.23S FOG
YAKIMA         CLOUDY    41  37  86 CALM      30.21S
ELLENSBURG     CLOUDY    36  33  89 CALM      30.18S FOG
WENATCHEE      CLOUDY    37  35  92 CALM      30.20F FOG
OMAK           FOG       34  33  96 SE3       30.20S VSB 3/4

...SOUTHERN BRITISH COLUMBIA...

CITY           SKY/WX    TMP DP  RH WIND       PRES   REMARKS

...WESTERN MONTANA...

CITY           SKY/WX    TMP DP  RH WIND       PRES   REMARKS
MISSOULA       CLOUDY    36  35  96 CALM      30.25S FOG

...NEIGHBORING CITIES...

CITY           SKY/WX    TMP DP  RH WIND       PRES   REMARKS
SEATTLE        CLOUDY    50  49  96 SE10      30.09S



USA.gov is the U.S. government's official web portal to all federal, state and local government web resources and services.